Location: ???????
(54.6339°N, 39.4245°E)
Time: 06:49:10
(UTC+00:00)

Cosmos 2237 Rocket - Pass Details

Date: 19 May 2025
Orbit: 834 x 849 km, 71.0° (Epoch: 23 June)

Event Time Altitude Azimuth Distance (km) Brightness Sun altitude
Rises 23:42:04 0° 325° (NW) 3,401 5.6 -9.3°
Reaches altitude 10° 23:44:35 10° 319° (NW) 2,465 4.8 -9.1°
Maximum altitude 23:49:58 47° 248° (WSW) 1,099 2.5 -8.7°
Drops below altitude 10° 23:55:21 10° 175° (S) 2,459 4.2 -8.2°
Sets 23:57:51 0° 170° (S) 3,392 4.9 -8.0°
